TimeEDT,TemperatureF,Dew PointF,Humidity,Sea Level PressureIn,VisibilityMPH,Wind Direction,Wind SpeedMPH,Gust SpeedMPH,PrecipitationIn,Events,Conditions,WindDirDegrees,DateUTC
12:53 AM,30.2,28.4,93,30.13,10.0,North,4.6,-,N/A,,Clear,350,2012-11-03 04:53:00
1:53 AM,28.9,27.0,92,30.17,10.0,NNW,6.9,-,N/A,,Clear,340,2012-11-03 05:53:00
2:53 AM,28.9,27.0,92,30.18,10.0,NNW,4.6,-,N/A,,Clear,340,2012-11-03 06:53:00
3:53 AM,28.0,26.1,92,30.19,10.0,North,5.8,-,N/A,,Clear,350,2012-11-03 07:53:00
4:53 AM,28.0,26.1,92,30.19,10.0,North,5.8,-,N/A,,Clear,360,2012-11-03 08:53:00
5:53 AM,28.9,27.0,92,30.19,10.0,North,4.6,-,N/A,,Clear,360,2012-11-03 09:53:00
6:53 AM,27.0,26.1,96,30.19,10.0,North,4.6,-,N/A,,Clear,350,2012-11-03 10:53:00
7:53 AM,28.9,27.0,92,30.19,10.0,NNE,3.5,-,N/A,,Clear,20,2012-11-03 11:53:00
8:53 AM,27.0,25.0,92,30.21,9.0,Calm,Calm,-,N/A,,Clear,0,2012-11-03 12:53:00
9:53 AM,34.0,30.0,85,30.23,10.0,North,3.5,-,N/A,,Clear,360,2012-11-03 13:53:00
10:53 AM,37.0,30.0,76,30.24,10.0,Variable,6.9,-,N/A,,Scattered Clouds,0,2012-11-03 14:53:00
11:03 AM,37.4,30.2,75,30.21,10.0,NNE,4.6,-,N/A,,Mostly Cloudy,20,2012-11-03 15:03:00
11:53 AM,37.0,28.9,73,30.25,10.0,Variable,3.5,-,N/A,,Overcast,0,2012-11-03 15:53:00
12:53 PM,37.0,28.9,73,30.25,10.0,Calm,Calm,-,N/A,,Overcast,0,2012-11-03 16:53:00
1:53 PM,37.9,28.9,70,30.23,10.0,Variable,3.5,-,N/A,,Overcast,0,2012-11-03 17:53:00
2:53 PM,39.9,28.9,65,30.21,10.0,Variable,5.8,-,N/A,,Scattered Clouds,0,2012-11-03 18:53:00
3:02 PM,39.2,28.4,65,30.17,10.0,WNW,4.6,-,N/A,,Mostly Cloudy,300,2012-11-03 19:02:00
3:09 PM,39.2,28.4,65,30.17,10.0,Variable,3.5,-,N/A,,Scattered Clouds,0,2012-11-03 19:09:00
3:17 PM,39.2,28.4,65,30.17,10.0,North,5.8,-,N/A,,Mostly Cloudy,10,2012-11-03 19:17:00
3:45 PM,42.8,28.4,57,30.17,10.0,North,4.6,-,N/A,,Scattered Clouds,360,2012-11-03 19:45:00
3:53 PM,41.0,28.0,60,30.20,10.0,North,6.9,-,N/A,,Mostly Cloudy,10,2012-11-03 19:53:00
4:03 PM,41.0,28.4,61,30.17,10.0,NE,5.8,-,N/A,,Scattered Clouds,50,2012-11-03 20:03:00
4:53 PM,39.0,28.0,65,30.20,10.0,North,8.1,-,N/A,,Mostly Cloudy,350,2012-11-03 20:53:00
5:53 PM,37.9,27.0,65,30.19,10.0,NE,5.8,-,N/A,,Scattered Clouds,50,2012-11-03 21:53:00
6:53 PM,37.9,28.0,68,30.20,10.0,Calm,Calm,-,N/A,,Overcast,0,2012-11-03 22:53:00
7:53 PM,36.0,27.0,70,30.21,10.0,Calm,Calm,-,N/A,,Mostly Cloudy,0,2012-11-03 23:53:00
8:53 PM,34.0,27.0,75,30.22,10.0,Calm,Calm,-,N/A,,Clear,0,2012-11-04 00:53:00
9:53 PM,34.0,27.0,75,30.22,10.0,North,3.5,-,N/A,,Overcast,360,2012-11-04 01:53:00
10:53 PM,32.0,28.0,85,30.22,10.0,Calm,Calm,-,N/A,,Overcast,0,2012-11-04 02:53:00
11:53 PM,30.0,27.0,88,30.22,10.0,Calm,Calm,-,N/A,,Mostly Cloudy,0,2012-11-04 03:53:00